Location: Bessat
(45.8735°N, 1.9924°E)
Time: 18:39:23
(UTC+00:00)

CZ-4C R/B - Pass Details

Date: 11 May 2021
Orbit: 609 x 1393 km, 63.4° (Epoch: 21 June)

Event Time Altitude Azimuth Distance (km) Brightness Sun altitude
Rises 20:27:32 0° 321° (NW) 3,783 7.5 -11.6°
Reaches altitude 10° 20:29:59 10° 324° (NW) 2,934 6.4 -11.9°
Maximum altitude 20:37:09 72° 49° (NE) 1,290 3.1 -12.8°
Enters shadow 20:43:47 17° 131° (SE) 2,828 4.2 -13.6°
